Home   Weather   Emmen   Past weeks

Flag for Netherlands Past Weather in Emmen, Netherlands — Yesterday and Last 2 Weeks

Now
50 °F

Overcast.


Feels Like: 49 °F
Forecast: 39 / 46 °F
Wind: 5 mph from Southwest

Location: Meppen

Current Time: Feb 27, 2017 at 8:22:21 am

Latest Report: Feb 27, 2017 at 6:00 am


Visibility: 25 mi

Pressure: 29.63 "Hg

Humidity: 76%

Dew Point: 43 °F

Location of EmmenLocation

Past Weather in Emmen — Graph

°F

Emmen Temperature Yesterday

Maximum temperature yesterday: 50 °F (at 11:00 pm)
Minimum temperature yesterday: 43 °F (at 3:00 am)
Average temperature yesterday: 46 °F

High & Low Weather Summary for the Past Weeks

 TemperatureHumidityPressure
High53 °F (Feb 15, 3:00 pm)96% (Feb 25, 5:00 am)30.53 "Hg (Feb 25, 5:00 am)
Low25 °F (Feb 15, 8:00 am)47% (Feb 15, 2:00 pm)29.03 "Hg (Feb 23, 8:00 pm)
Average41 °F82%30.07 "Hg
* Reported Feb 12 6:00 am — Feb 27 6:00 am, Emmen, Weather by CustomWeather, © 2017

Note: Actual official high and low records may vary slightly from our data, if they occured in-between our weather recording intervals... More about our weather records

Advertising

Emmen Weather History for the Previous 24 Hours

Scroll right to see more
 ConditionsComfort  
Time TempWeatherWind HumidityBarometerVisibility
6:00 am
Mon, Feb 27
50 °FOvercast.5 mph76%29.63 "Hg25 mi
5:00 am51 °FCool.5 mph76%29.65 "Hg47 mi
3:00 am51 °FCool.5 mph76%29.69 "Hg47 mi
2:00 am50 °FCool.5 mph76%29.71 "Hg47 mi
12:00 am50 °FCool.6 mph77%29.72 "Hg47 mi
11:00 pm
Sun, Feb 26
50 °FCool.6 mph78%29.73 "Hg47 mi
9:00 pm49 °FCool.5 mph82%29.75 "Hg47 mi
8:00 pm49 °FCool.5 mph84%29.76 "Hg47 mi
6:00 pm48 °FCool.5 mph85%29.77 "Hg28 mi
5:00 pm48 °FCool.5 mph87%29.78 "Hg28 mi
4:00 pmN/APassing clouds.N/AN/AN/A3 mi
3:00 pm48 °FCool.5 mph85%29.79 "Hg25 mi
2:00 pm47 °FCool.6 mph87%29.79 "Hg22 mi
12:00 pm44 °FQuite cool.6 mph93%29.81 "Hg4 mi
11:00 am44 °FQuite cool.5 mph91%29.81 "Hg3 mi
9:00 am43 °FQuite cool.5 mph92%29.80 "Hg14 mi
8:00 am43 °FPassing clouds.6 mph89%29.79 "Hg2 mi
Weather by CustomWeather, © 2017

See weather overviewHow to use our weather pages